Regional Weather Roundup
Issued by NWS Upton, NY

Current Version | Previous Version | Graphics & Text | Print | Product List | Glossary Off
Versions: 1 2 3 4 5 6 7 8 9 10 11 12 13 14 15 16 17 18 19 20 21 22 23 24 25 26 27 28 29 30 31 32 33 34 35 36 37 38 39 40 41 42 43 44 45 46 47 48 49 50

745
ASUS41 KOKX 191009
RWROKX

Regional Weather Roundup
National Weather Service New York NY
500 AM EST FRI JAN 19 2018

Note: "FAIR" indicates few or no clouds below 12,000 feet with no
significant weather and/or obstructions to visibility.

NYZ071-072-176-178-NJZ106-104-191100-
New York City Metro Area

CITY           SKY/WX    TMP DP  RH WIND       PRES   REMARKS
Central Park   FAIR      26  13  57 MISG      30.07S
Bronx Bot Gard   N/A     27  14  59 W14       30.05S WCI  15
Bronx Lehman C   N/A     27  14  59 W3          N/A
LaGuardia Arpt FAIR      28  12  51 W10       30.06R WCI  19
Queens College   N/A     28  14  54 W6          N/A  WCI  22
Kennedy Intl   FAIR      25  15  66 W8        30.08S WCI  16
Breezy Point     N/A    N/A N/A N/A W8G14       N/A
Brooklyn Coll    N/A     28  14  54 W5          N/A  WCI  23
Staten Island    N/A     25  14  63 SW3         N/A
Newark/Liberty FAIR      22  13  68 SW6       30.07S WCI  14
Teterboro      FAIR      21  12  68 S3        30.06S
$$

NYZ177-179-078>081-191100-
Long Island New York

CITY           SKY/WX    TMP DP  RH WIND       PRES   REMARKS
Jones Beach      N/A    N/A N/A N/A W10         N/A
Wantagh          N/A     25  16  68 W3          N/A
Matinecock Pt    N/A    N/A N/A N/A W14         N/A
Farmingdale    FAIR      23  13  65 W3        30.06R
MacArthur/ISP  FAIR      23  15  71 W6        30.04R WCI  16
Shirley          N/A    N/A N/A N/A MISG      30.06R
Mt Sinai Harb    N/A    N/A N/A N/A W5          N/A
Westhampton    FAIR      14  10  84 CALM      30.06R
East Hampton   FAIR      21  16  81 W6        30.03R WCI  14
Southold         N/A     27  19  74 W5          N/A  WCI  21
Montauk          N/A     30  19  63 NW14G24   30.03R WCI  19
$$

NYZ052-065-067-191100-
Hudson Valley

CITY           SKY/WX    TMP DP  RH WIND       PRES   REMARKS
White Plains   FAIR      17  13  84 CALM      30.02R
Larchmont Harb   N/A    N/A N/A N/A SW8         N/A
Croton On Huds   N/A    N/A N/A N/A SW5         N/A
Somers           N/A     16  12  86 W3          N/A
Brewster         N/A     12  10  92 S1          N/A
Newburgh       NOT AVBL
Montgomery     FAIR       7   4  87 CALM      30.01S
Otisville        N/A     10   9  92 SW3         N/A
Warwick          N/A      5   3  92 E1          N/A
Suffern          N/A     18  12  79 SW1         N/A
Poughkeepsie   FAIR       7   4  87 CALM      30.02S
Albany         MOCLDY    19  13  77 CALM      29.99S
$$

NJZ001-105-106-008-010-013-015-019>022-104-191100-
New Jersey

CITY           SKY/WX    TMP DP  RH WIND       PRES   REMARKS
Newark/Liberty FAIR      22  13  68 SW6       30.07S WCI  14
Teterboro      FAIR      21  12  68 S3        30.06S
Caldwell       FAIR      16  12  84 SW3       30.06F
Somerville     FAIR      11   8  88 CALM      30.06S
Linden         FAIR      23  12  61 CALM      30.08S
Perth Amboy      N/A    N/A N/A N/A W7          N/A
Sussex         FAIR       3   0  87 CALM      30.03R
Andover          N/A      2   0  91 CALM      30.03S
Trenton        FAIR      19  13  77 CALM      30.07R
Millville      FAIR      16  14  92 CALM      30.09R
Atlantic City  FAIR      22  14  71 CALM      30.09R
Wrightstown    FAIR      16  12  84 CALM      30.05R
Toms River     FAIR      13   8  81 CALM      30.10R
Belmar         FAIR      19  12  74 SW5       30.09R WCI  12
$$

PAZ047>061-062-071-191100-
Eastern Pennsylvania

CITY           SKY/WX    TMP DP  RH WIND       PRES   REMARKS
Philadelphia   FAIR      26  17  68 SW7       30.09S WCI  18
Allentown      FAIR       9   3  77 CALM      30.05S
Scranton       FAIR      13   9  84 SW3       30.00S
$$

CTZ002-004>006-009-010-012-RIZ004-006-007-MAZ004-011-015-191100-
Southern New England

 In CT

CITY           SKY/WX    TMP DP  RH WIND       PRES   REMARKS
Bradley Intl   MOCLDY    20  15  81 SW7       29.99S WCI  11
Hartford       FAIR      22  14  71 VRB6      30.02R WCI  14
Danbury        CLOUDY    16  12  84 W3        30.02S
Wtrbury/Oxford MOCLDY    14  12  92 SW5       29.98S WCI   6
Norwalk Harbor   N/A    N/A N/A N/A W9          N/A
Bridgeport     FAIR      21  13  71 W6        30.04S WCI  13
Meriden        FAIR      13  11  92 CALM      30.03R
New Haven      FAIR      23  14  68 W5        30.03R WCI  17
Chester        FAIR      19  14  79 W6        30.00R WCI  11
Groton         FAIR      23  14  68 W8        30.02R WCI  14
Willimantic    FAIR      16  13  88 CALM      29.99S

 In RI

CITY           SKY/WX    TMP DP  RH WIND       PRES   REMARKS
Providence     FAIR      21  15  78 W9        29.98R WCI  11
Block Island   FAIR      26  19  74 NW13G21   30.00R WCI  15
Westerly       FAIR      22  16  78 W5        30.01R WCI  16

In MA

CITY           SKY/WX    TMP DP  RH WIND       PRES   REMARKS
Boston         MOCLDY    24  15  68 W14       29.95R WCI  12
Worcester      FAIR      16  11  80 W8        29.89S WCI   5
Westfield      CLOUDY    17  15  92 SW5       29.96S WCI  10
Provincetown   FAIR      27  22  81 MISG        N/A
Nantucket      FAIR      26  20  77 NW12      29.94S WCI  16
$$

ANZ330-335-338-340-345-350-353-355-191100-
Coastal Marine Observations


STATION/POSITION TIME  SKY/WX   TEMP    WIND        PRES    VSBY  WAVE
                                AIR SEA DIR/SP/G                  HT/PER
                 (UTC)          (F)     (DEG/KT/KT) (MB)    (MI)  (FT/S)
NY Harb Entrance 0850            30 40  270/ 14/ 17 1017.5          2/10
20 S Fire Island 0850            31 42  280/ 17/ 21 1017.3          3/ 5
15 E Barnegat Li 0930               43                N/A           3/11
Hudson Canyon    0850            35 49  290/ 17/ 21 1016.8          6/ 6
Kings Point      0948               32  310/  7/  9 1018.8
Execution Rocks  NOT AVBL
Western LI Sound NOT AVBL
Central LI Sound 0930            27     270/ 12/ 16   N/A           1
Robbins Reef     0948            25     250/  8/ 10 1018.7
$$


>>>>>>>>>>>>>>>>>>>>>>>>>>>> KEY <<<<<<<<<<<<<<<<<<<<<<<<<<<
>                                                          <
>     SKY/WX - Sky Condition/Present Weather               <
>     TMP    - Temperature in Fahrenheit                   <
>     DP     - Dew Point in Fahrenheit                     <
>     RH     - Relative Humidity in Percent                <
>     WIND   - Direction (from) and Speed in MPH           <
>     PRES   - Mean Sea Level Pressure (inches of Hg)      <
>     WCI    - Wind Chill Index                            <
>     VSB    - Visibility in Miles                         <
>     HX     - Heat Index                                  <
>     TC     - Temperature in Celsius                      <
>     VRB    - Varibale Wind Direction                     <
>                                                          <
>>>>>>>>>>>>>>>>>>>>>>>>>>>> KEY <<<<<<<<<<<<<<<<<<<<<<<<<<<




USA.gov is the U.S. government's official web portal to all federal, state and local government web resources and services.